Torna al catalogo

BREEZE-M R/B

AttivoHEO
NORAD 42750·ROCKET BODY·🇷🇺 Russia

Lanciato Jun 8, 2017 da Baikonur Cosmodrome

Loading…

Prossimi Passaggi (prossime 24 ore)

TLE

AggiornatoSource: Space-Track

Epoca: Sep 7, 2026, 03:36 UTC

1 42750U 17032B   26250.15049057  .00000093  00000-0  00000-0 0  9999
2 42750  30.2418 185.0820 6718232 257.0057  25.5808  2.26362832 76530

Traccia BREEZE-M R/B in tempo reale con AllMySat

Download on the App Store